Showing default

POEM 2, 56308

Orbit data source: Space-Track

POEM 2, 56308 is a payload satellite owned by ISRO (IN) in LEO that was launched on Sat, 22 Apr 2023 UTC via a PSLV launch vehicle from the Sirharikota (SRI). Payload-class satellites include a variety of spacecraft equipped with specific instruments for various scientific and technological missions. These include communications satellites like Starlink; space stations such as the ISS; scientific satellites like the Hubble; Earth observation satellites from companies like Planet Labs, Umbra, and HawkEye 360; GPS; miniature CubeSats for education and research; and military/defense satellites.

Not visible in the next 10 days
Identifier
56308, 2023-057A
Orbit
LEO
Country
Flag of ININ / IND
Related business
Manufacturer
ISRO SAC/Banga
Mission
Operational Civil Technology
Bus & Motor
POEM, Unknown motor
Mass
50 kg wet, ~50 kg dry
Launch date (UTC)
2023-04-22 (3 years ago)
Launch vehicle
PSLV
Launch site
Sirharikota (SRI)
Object type
Payload
Rocket body
Debris
Shape & HBR
Cyl + Box, 1.8 m
Radar Cross Section
5.588 m², Large (>1 m²)

Expand to show TLE details & history
Last TLE update: 2 days ago

TLE from 2 days ago
0 POEM 2
1 56308U 23057A   26171.86820709  .00001755  00000-0  93507-4 0  9992
2 56308   9.8876 235.2083 0020757 344.3042  15.6526 14.94993072172818
Epoch: 2026-06-20T20:50Z
TLE epoch observation values (Epoch: 2026-06-20T20:50:13.092Z)
Latitude
-0.00001°
Longitude
13.57706°
Altitude
565.527 km
Speed
7.589 km/s
True Right ascension
15h 40m 49s
True Declination
0° 00' 00"
Sunlit
Object was in full shadow at epoch
Visualization orbit readout
Latitude
Unknown
Longitude
Unknown
Altitude
Unknown
Speed
Unknown
Apparent Right ascension
Unknown
Apparent Declination
Unknown
Sunlit
N/A
Visualization observer readout
Local Sidereal Time
21:40:51
Azimuth
Unknown
Elevation
Unknown
Doppler factor
Unknown
Orbital elements
Apogee altitude
602.911 km
Perigee altitude
573.989 km
Semi-major axis
6,966.587 km
Eccentricity
0.00208
Inclination
9.8876°
RAAN
235.2083°
Arg. of periapsis
344.3042°
True anomaly
15.71694°
Mean anomaly
15.6526°
Eccentric anomaly
15.68475°
Mean motion
3.73261 °/min
Orbital period
96.45 mins
BSTAR
0.000093507
Loading maneuver chart data...
Computing Atmospheric mass density...
Loading historical data...
Loading historical data...
Loading historical data...
Loading historical data...
Loading historical data...
Loading historical data...
Loading historical data...
Other satellites on launch #57 in the year 2023 (2023-04-22 UTC)

Documentation

Showing up to 5 results
|